Weather in Sheyno

Russia / Oryol Oblast     52°56′14″N   37°11′49″E
temp.,
°C
wind,
m/s
gust,
m/s
humid.,
%
clouds,
%
prec.,
mm/h
press.,
hPa
HPBL,
m
10 april, sat
sat1000:00+3s11620 0.0 102710
03:00+2s11630 0.0 102810
06:00+1sse11670 0.0 102810
09:00+5sse22550 0.0 1028317
12:00+8ssw22455 0.0 10271417
15:00+9sw22415 0.0 10261655
18:00+9sw12425 0.0 10251030
21:00+6s22520 0.0 102710
11 april, sun
sun1100:00+4ssw22590 0.0 102810
03:00+3w22620 0.0 102810
06:00+2nw11640 0.0 102910
09:00+7n11510 0.0 1030192
12:00+10nne23410 0.0 1030954
15:00+12ne34372 0.0 10291141
18:00+12ene47455 0.0 1029418
21:00+7ene3762100 0.0 1030116
12 april, mon
mon1200:00+5ne41168100 0.0 1030215
03:00+4ne51269100 0.0 1030263
06:00+4ene51269100 0.0 1028331
09:00+6ene51180100 0.1 1028381
12:00+12e5771100 0.0 1026531
15:00+15e5765100 0.0 1025706
18:00+14e487198 0.0 1023251
21:00+11e41082100 0.0 1023156
13 april, tue
tue1300:00+10se4117891 0.0 1023159
03:00+9sse468497 0.0 102387
06:00+9se478691 0.0 1023110
09:00+11se41077100 0.0 1023269
12:00+16se695669 0.0 1022843
15:00+18sse71048100 0.0 10211398
18:00+16se61054100 0.0 1020483
21:00+13se3106386 0.0 1020228
14 april, wed
wed1400:00+11sse346668 0.0 102070
03:00+11ese2371100 0.0 101931
06:00+10se498177 0.0 1019178
09:00+11sse3781100 0.0 1019218
12:00+16s5762100 0.0 10181014
15:00+17s575799 0.1 10181369
18:00+13sw4127789 0.8 1017593
21:00+12sse2283100 0.8 101733